User: anonymous   Login
Location: New Plymouth
(39.0670°S, 174.0830°E)
Time: 10:14:30
(UTC+13:00)
Language:

Meteor 1-25 Rocket - Orbit

View from above orbital plane
View from above orbital plane
View from above satellite
View from above satellite

Ground track
Ground track

The orbit data is extracted from the following two-line orbital elements,

1  8846U 76043B   19081.90675401 -.00000052 +00000-0 -37282-4 0  9992
2  8846 081.2276 045.6071 0036464 000.5728 359.5477 14.08591091201429
Epoch (UTC): 22 March 2019 21:45:43
Eccentricity: 0.0036464
inclination: 81.2276°
perigee height: 838 km
apogee height: 890 km
right ascension of ascending node: 45.6071°
argument of perigee: 0.5728°
revolutions per day: 14.08591091
mean anomaly at epoch: 359.5477°
orbit number at epoch: 20142

The dashed part of the orbit path shows where the satellite is in the earth's shadow,  

DLR